Change the Weather History Date:

Sunday, August 18, 2013

  Actual Average Record
Temperature  
Mean Temperature 72 °F -  
Max Temperature 82 °F 89 °F 102 °F (2003)
Min Temperature 62 °F 63 °F 61 °F (2001)
Cooling Degree Days 7    
Growing Degree Days 22 (Base 50)    
Moisture  
Dew Point 61 °F    
Average Humidity 69    
Maximum Humidity 87    
Minimum Humidity 51    
Precipitation  
Precipitation 0.00 in - - ()
Sea Level Pressure  
Sea Level Pressure 30.07 in    
Wind  
Wind Speed 7 mph (SE)    
Max Wind Speed 14 mph    
Max Gust Speed 17 mph    
Visibility 10 miles    
Events      
Averages and records for this station are not official NWS values.
T = Trace of Precipitation, MM = Missing Value Source: NWS Daily Summary

Daily Weather History Graph

Daily Weather History Graph

Search for Another Location

Airport or City:

Trip Planner

Search our weather history database for the weather conditions in past years. The results will help you decide how hot, cold, wet, or windy it might be!

Date:

Astronomy

Aug. 18, 2013 Rise Set
Actual Time 6:49 AM CDT 8:20 PM CDT
Civil Twilight 6:21 AM CDT 8:48 PM CDT
Nautical Twilight 5:47 AM CDT 9:21 PM CDT
Astronomical Twilight 5:12 AM CDT 9:56 PM CDT
Moon 6:26 PM CDT (8/18) 4:01 AM CDT (8/18)
Length of Visible Light 14h 26m
Length of Day
13h 31m
Waxing Gibbous, 92% of the Moon is Illuminated
Aug 18
Waxing Gibbous
Aug 20
Full
Aug 28
Last Quarter
Sep 5
New
Sep 12
First Quarter

Hourly Weather History & Observations

Time (CDT) Temp. Heat Index Dew Point Humidity Pressure Visibility Wind Dir Wind Speed Gust Speed Precip Events Conditions
12:52 AM 64.9 °F - 59.0 °F 81% 30.09 in 10.0 mi ESE 5.8 mph - N/A   Clear
1:52 AM 64.9 °F - 59.0 °F 81% 30.09 in 10.0 mi ESE 5.8 mph - N/A   Mostly Cloudy
2:52 AM 64.0 °F - 57.9 °F 80% 30.08 in 10.0 mi SE 3.5 mph - N/A   Clear
3:52 AM 63.0 °F - 57.9 °F 84% 30.08 in 8.0 mi Calm Calm - N/A   Mostly Cloudy
4:52 AM 63.0 °F - 59.0 °F 87% 30.07 in 8.0 mi East 5.8 mph - N/A   Overcast
6:52 AM 62.1 °F - 57.0 °F 84% 30.09 in 8.0 mi SE 4.6 mph - N/A   Partly Cloudy
7:52 AM 64.0 °F - 57.9 °F 80% 30.11 in 7.0 mi ESE 4.6 mph - N/A   Clear
8:52 AM 66.9 °F - 59.0 °F 76% 30.12 in 9.0 mi SE 5.8 mph - N/A   Partly Cloudy
9:52 AM 72.0 °F - 60.1 °F 66% 30.12 in 10.0 mi SE 8.1 mph - N/A   Clear
10:52 AM 73.9 °F - 61.0 °F 64% 30.12 in 10.0 mi South 8.1 mph - N/A   Mostly Cloudy
11:52 AM 75.9 °F - 61.0 °F 60% 30.11 in 10.0 mi SSE 9.2 mph - N/A   Scattered Clouds
12:52 PM 78.1 °F - 62.1 °F 58% 30.09 in 10.0 mi SSE 12.7 mph 16.1 mph N/A   Partly Cloudy
1:52 PM 80.1 °F 81.5 °F 63.0 °F 56% 30.06 in 10.0 mi SE 10.4 mph 17.3 mph N/A   Scattered Clouds
2:52 PM 80.1 °F 81.5 °F 63.0 °F 56% 30.05 in 10.0 mi SE 10.4 mph - N/A   Scattered Clouds
3:52 PM 82.0 °F 83.1 °F 63.0 °F 52% 30.03 in 10.0 mi SE 10.4 mph 17.3 mph N/A   Clear
4:52 PM 82.0 °F 83.1 °F 63.0 °F 52% 30.02 in 10.0 mi SE 9.2 mph - N/A   Clear
5:52 PM 82.0 °F 83.0 °F 62.1 °F 51% 30.00 in 10.0 mi SE 13.8 mph - N/A   Clear
6:52 PM 80.1 °F 81.5 °F 63.0 °F 56% 30.00 in 10.0 mi SE 9.2 mph - N/A   Clear
7:52 PM 77.0 °F - 63.0 °F 62% 30.00 in 10.0 mi SE 9.2 mph - N/A   Clear
8:52 PM 73.0 °F - 63.0 °F 71% 30.02 in 10.0 mi SE 8.1 mph - N/A   Clear
9:52 PM 72.0 °F - 64.0 °F 76% 30.05 in 10.0 mi SE 6.9 mph - N/A   Clear
10:52 PM 71.1 °F - 63.0 °F 75% 30.06 in 10.0 mi SE 8.1 mph - N/A   Clear
11:52 PM 70.0 °F - 62.1 °F 76% 30.06 in 10.0 mi SE 8.1 mph - N/A   Clear